Simultaneous Nadir Overpasses (SNOs) Predictions

Prediction of SNOs between GOES-16 and LANDSAT-8 Satellite Orbit:

Table of predicted SNOs for the next 14.0 days since TLE Epoch: 11/11/2023
Index Date Time (GOES-16) GOES-16 Lat,Lon LANDSAT-8 Lat,Lon Distance(km) Time Diff (sec)
1 11/12/2023 15:00:35 -0.06, -75.23 -0.65, -72.45 316.27 80
2 11/13/2023 03:24:39 0.05, -75.21 -0.49, -77.63 276.27 80
3 11/15/2023 03:09:50 0.05, -75.22 0.19, -74.69 60.41 80
4 11/17/2023 02:57:39 0.04, -75.23 0.76, -71.73 397.20 80
5 11/17/2023 15:18:55 -0.04, -75.25 0.32, -76.89 186.61 80
6 11/19/2023 15:09:25 -0.03, -75.27 -0.34, -73.94 151.00 80
7 11/20/2023 03:30:48 0.03, -75.25 -0.79, -79.13 440.99 80
8 11/21/2023 14:57:14 -0.03, -75.29 -0.95, -70.99 489.44 80
9 11/22/2023 03:18:37 0.03, -75.27 -0.16, -76.17 102.29 80
10 11/24/2023 03:03:47 0.02, -75.30 0.48, -73.22 237.25 80
11 11/24/2023 15:25:01 -0.02, -75.33 0.65, -78.37 346.03 80
